If you wish to contribute or participate in the discussions about articles you are invited to join SKYbrary as a registered user

 Actions

Monbetsu Airport

From SKYbrary Wiki

RJEB
Airport
ICAO: RJEB – IATA: MBE
Summary
Name Monbetsu Airport
Region Asia and Pacific
Territory Japan JP.gif
Location Monbetsu, Hokkaidō
Serving Monbetsu
Elevation 17.678 m
58 ft17.678 m
Coordinates 44° 18' 23.71" N, 143° 24' 25.01" E
Runways
Designator Length Width Surface ROPS
14/32 2000 m6,561.68 ft
45 m147.638 ft
ASP /


METAR
Observation RJEB 160700Z VRB02KT 9999 FEW012 SCT130 BKN/// 20/18 Q1005
Station Mombetsu Airport
Date/Time 16 September 2019 07:00:00
Wind direction °
Wind speed 02 kts
Lowest cloud amount few clouds
Temperature 20°C
Dew point 18°C
Humidity 88%
QNH 1005 hPa
Weather condition n/a

Monbetsu Airport or Okhotsk Monbetsu Airport, is an airport located 3.8nm7,037.6 m
7.038 km
23,089.239 ft
southeast of Monbetsu, a city on the Sea of Okhotsk in Hokkaidō, Japan.

Climatology

Humid continental climate (Köppen climate classification Dfb)

Maps

Terrain

Loading map...

Airport Layout

Loading map...


Accidents & Serious Incidents at or in vicinity of RJEB

None on SKYbrary